Location: Unspecified
(40.7945°N, 111.1337°W)
Time: 22:24:30
(UTC-06:00)

Vanguard 1 - Pass Details

Date: 25 June 2019
Orbit: 653 x 3830 km, 34.3° (Epoch: 20 July)

Event Time Altitude Azimuth Distance (km) Brightness Sun altitude
Rises 04:58:54 0° 256° (WSW) 7,625 - -9.2°
Exits shadow 04:59:16 - 256° (WSW) 7,540 14.0 -9.1°
Reaches altitude 10° 05:04:37 10° 254° (WSW) 6,276 13.6 -8.4°
Maximum altitude 05:22:21 65° 179° (S) 2,335 11.8 -5.8°
Drops below altitude 10° 05:31:51 10° 100° (E) 3,569 13.6 -4.3°
Sets 05:34:11 0° 97° (E) 4,260 14.2 -4.0°
